Year,Month,Day,Hour,Minute,Value (Times are PST for temperature in C)
2022,04,29,12,28,11.10
2022,04,29,12,29,11.20
2022,04,29,12,30,11.20
2022,04,29,12,31,11.30
2022,04,29,12,32,11.40
2022,04,29,12,33,11.40
2022,04,29,12,34,11.50
2022,04,29,12,35,11.60
2022,04,29,12,36,11.60
2022,04,29,12,37,11.60
2022,04,29,12,38,11.60
2022,04,29,12,39,11.60
2022,04,29,12,40,11.60
2022,04,29,12,41,11.70
2022,04,29,12,42,11.70
2022,04,29,12,43,11.70
2022,04,29,12,44,11.70
2022,04,29,12,45,11.80
2022,04,29,12,46,11.80
2022,04,29,12,47,11.80
2022,04,29,12,48,11.80
2022,04,29,12,49,11.80
2022,04,29,12,50,11.80
2022,04,29,12,51,11.80
2022,04,29,12,52,11.80
2022,04,29,12,53,11.80
2022,04,29,12,54,11.80
2022,04,29,12,55,11.80
2022,04,29,12,56,11.80
2022,04,29,12,57,11.80
2022,04,29,12,58,11.80
2022,04,29,12,59,11.70
2022,04,29,13,00,11.70
2022,04,29,13,01,11.60
2022,04,29,13,02,11.50
2022,04,29,13,03,11.40
2022,04,29,13,04,11.40
2022,04,29,13,05,11.40
2022,04,29,13,06,11.40
2022,04,29,13,07,11.40
2022,04,29,13,08,11.40
2022,04,29,13,09,11.40
2022,04,29,13,10,11.40
2022,04,29,13,11,11.40
2022,04,29,13,12,11.40
2022,04,29,13,13,11.40
2022,04,29,13,14,11.40
2022,04,29,13,15,11.40
2022,04,29,13,16,11.40
2022,04,29,13,17,11.60
2022,04,29,13,18,11.60
2022,04,29,13,19,11.60
2022,04,29,13,20,11.60
2022,04,29,13,21,11.60
2022,04,29,13,22,11.60
2022,04,29,13,23,11.60
2022,04,29,13,24,11.60
2022,04,29,13,25,11.60
2022,04,29,13,26,11.60
2022,04,29,13,27,11.60
2022,04,29,13,28,11.60
2022,04,29,13,29,11.60
